Starlink 33726

operational
NORAD ID: 63437 Int'l Des: 2025-069 Owner: SPXS Country: US Constellation: starlink
LEOCIRCULAR

About Starlink 33726

Description loading...

Live Position

Loading 3D Globe...

Upcoming Passes

Altitude History

Altitude vs Time

uPlot chart will show altitude changes over time

Two-Line Element Set

1 63437U 25069E 25258.83341435 .00082187 00000-0 27625-2 0 9998
2 63437 53.1584 234.7752 0001614 111.2323 188.2968 15.30129004 5749
Epoch: Sep 15, 2025 • Age: 14 hours

Current Status

Altitude 475.5 km
Velocity 7.63 km/s
Sub-Earth Point 0.58°N, 87.67°W
Launch Date Apr 4, 2025
Age 0.4 years
Type internet

Technical Details

Classification Payload
Mass 575.00 kg
Dry Mass 530.00 kg
Total Mass 575.00 kg
Length 0.30 m
Diameter 4.10 m
Span 29.00 m
Shape Box + pan
Manufacturer SPXS
Bus Type Starlink V2MO
Phase Status In Orbit
Owner/State SPXS/US

Large Constellations

Loading constellations...